CW2049 Weather Reports


time (UTC)temp
C
wind
direction
speed
KPH
gust
KPH
rain 1hr
cm
rain 24hr
cm
rain mn
cm
humidity
%
barometer
mb
20260503050019 14 359 0.0 0.0 0.00 0.00 0.00 58 1013.0
20260503044519 15 359 0.0 0.0 0.00 0.00 0.00 58 1012.9
20260503043018 16 359 0.0 0.0 0.00 0.00 0.00 52 1012.6
20260503041519 16 359 0.0 0.0 0.00 0.00 0.00 50 1012.5
20260503040019 17 359 0.0 0.0 0.00 0.00 0.00 48 1012.3
20260503034518 16 359 0.0 0.0 0.00 0.00 0.00 49 1012.0
20260503033025 17 359 0.0 0.0 0.00 0.00 0.00 53 1011.8
20260503031516 17 359 0.0 0.0 0.00 0.00 0.00 49 1011.4
20260503030015 20 359 0.0 0.0 0.00 0.00 0.00 39 1011.1
20260503024518 20 359 0.0 0.0 0.00 0.00 0.00 36 1011.1
20260503023014 21 359 0.0 0.0 0.00 0.00 0.00 37 1011.1
20260503021514 22 298 0.0 0.0 0.00 0.00 0.00 31 1011.0
20260503020014 23 298 0.0 0.0 0.00 0.00 0.00 27 1010.9
20260503014513 23 298 0.0 0.0 0.00 0.00 0.00 26 1010.8
20260503013013 23 298 0.0 0.0 0.00 0.00 0.00 25 1010.8
20260503011513 24 298 0.0 0.0 0.00 0.00 0.00 26 1010.8
20260503010016 24 298 0.0 0.0 0.00 0.00 0.00 27 1010.8
20260503004522 25 298 0.0 0.0 0.00 0.00 0.00 25 1010.8
20260503003013 25 299 0.0 0.0 0.00 0.00 0.00 24 1010.7
20260503001510 25 303 0.0 1.6 0.00 0.00 0.00 23 1010.6
20260503000010 26 304 0.0 4.8 0.00 0.00 0.00 23 1010.5
20260502234508 26 310 0.0 4.8 0.00 0.00 0.00 24 1010.6
20260502233010 25 311 0.0 1.6 0.00 0.00 0.00 24 1010.6
20260502231506 25 324 0.0 14.5 0.00 0.00 0.00 26 1010.7
20260502230009 26 318 0.0 14.5 0.00 0.00 0.00 23 1010.8
20260502224502 26 324 0.0 9.7 0.00 0.00 0.00 23 1011.0
20260502223101 26 323 3.2 17.7 0.00 0.00 0.00 23 1011.1
20260502221559 26 316 1.6 17.7 0.00 0.00 0.00 23 1011.3
20260502220056 26 320 3.2 16.1 0.00 0.00 0.00 23 1011.4
20260502214553 26 336 3.2 19.3 0.00 0.00 0.00 25 1011.7
20260502213105 25 327 6.4 17.7 0.00 0.00 0.00 25 1011.9
20260502211605 25 328 4.8 14.5 0.00 0.00 0.00 25 1012.0
20260502210047 25 315 0.0 12.9 0.00 0.00 0.00 26 1012.1
20260502204543 25 314 3.2 12.9 0.00 0.00 0.00 27 1012.3
20260502203041 25 326 0.0 14.5 0.00 0.00 0.00 30 1012.4
20260502201538 24 328 4.8 9.7 0.00 0.00 0.00 31 1012.4
20260502200036 23 326 0.0 9.7 0.00 0.00 0.00 32 1012.6
20260502194532 23 329 1.6 14.5 0.00 0.00 0.00 35 1012.8
20260502193029 23 314 1.6 12.9 0.00 0.00 0.00 35 1013.1
20260502191525 22 309 1.6 9.7 0.00 0.00 0.00 37 1013.3
20260502190031 22 311 3.2 12.9 0.00 0.00 0.00 36 1013.6
20260502184526 21 328 3.2 14.5 0.00 0.00 0.00 38 1013.7
20260502183033 21 324 0.0 12.9 0.00 0.00 0.00 38 1014.0
20260502181517 20 320 3.2 14.5 0.00 0.00 0.00 37 1014.2
20260502163053 16 175 0.0 0.0 0.00 0.00 0.00 45 1015.6
20260502161544 15 175 0.0 0.0 0.00 0.00 0.00 48 1015.8
20260502151537 12 359 0.0 0.0 0.00 0.00 0.00 58 1016.4
20260502123022 8 359 0.0 0.0 0.00 0.00 0.00 77 1016.4
20260502121523 8 359 0.0 0.0 0.00 0.00 0.00 77 1016.4
20260502114518 8 359 0.0 0.0 0.00 0.00 0.00 75 1016.5
20260502113017 8 359 0.0 0.0 0.00 0.00 0.00 75 1016.5
20260502111516 8 359 0.0 0.0 0.00 0.00 0.00 73 1016.6
20260502110016 8 359 0.0 0.0 0.00 0.00 0.00 72 1016.6
20260502104521 9 359 0.0 0.0 0.00 0.00 0.00 71 1016.7
20260502103016 9 359 0.0 0.0 0.00 0.00 0.00 72 1016.6
20260502101531 8 359 0.0 1.6 0.00 0.00 0.00 75 1016.5
20260502091506 10 359 0.0 0.0 0.00 0.00 0.00 71 1016.3
20260502080110 10 359 0.0 0.0 0.00 0.00 0.00 70 1016.3
20260502070059 12 359 0.0 0.0 0.00 0.00 0.00 63 1016.1
20260502064552 13 359 0.0 1.6 0.00 0.00 0.00 57 1015.8
20260502063056 15 359 0.0 9.7 0.00 0.00 0.00 52 1015.8
20260502061550 11 359 0.0 0.0 0.00 0.00 0.00 68 1015.6
20260502060049 12 359 0.0 0.0 0.00 0.00 0.00 64 1015.6
20260502054548 14 359 0.0 0.0 0.00 0.00 0.00 59 1015.5
20260502053048 16 359 0.0 16.1 0.00 0.00 0.00 46 1015.4
20260502051603 15 359 0.0 0.0 0.00 0.00 0.00 50 1015.4